Regional Weather Roundup
Issued by NWS Goodland, KS

Home | Current Version | Previous Version | Graphics & Text | Print | Product List | Glossary Off
Versions: 1 2 3 4 5 6 7 8 9 10 11 12 13 14 15 16 17 18 19 20 21 22 23 24 25 26 27 28 29 30 31 32 33 34 35 36 37 38 39 40 41 42 43 44 45 46 47 48 49 50

000
ASUS43 KGLD 172308
RWRGLD

GOODLAND FORECAST AREA HOURLY WEATHER ROUNDUP
NATIONAL WEATHER SERVICE GOODLAND KS
400 PM MST TUE JAN 17 2017

...OFFICIAL OBSERVATIONS...

CITY           SKY/WX    TMP DP  RH WIND       PRES   REMARKS
GOODLAND KS    CLEAR     45  34  65 W6        30.04S
HILL CITY KS   CLEAR     47  31  53 SW6       30.08S
IMPERIAL NEB   CLEAR     43  27  53 SW8       30.03S
MCCOOK NEB     CLEAR     45  29  53 SW8       30.05S
AKRON CO       CLEAR     38  28  67 SW7       30.01R
BURLINGTON CO  CLEAR     41  33  73 SW7       30.04S
LIMON CO       CLEAR     43  31  62 SW5       30.01R
$$

...UNOFFICIAL OBSERVATIONS...

CITY           SKY/WX    TMP DP  RH WIND       PRES   REMARKS
LENORA KS        N/A     46  32  58 CALM        N/A
NORTON KS      CLEAR     45  27  49 W3        30.06S
SHARON SPRINGS   N/A     46  34  62 S6          N/A
TRENTON NEB      N/A     45  32  60 CALM        N/A
KIT CARSON CO    N/A     41  33  74 CALM        N/A
YUMA CO        FAIR      36  30  80 S7        30.01S
$$




USA.gov is the U.S. government's official web portal to all federal, state and local government web resources and services.